[[{"header":{"parameterUnit":"m.s-1","parameterCategory":1,"la1":30.2991,"la2":30.254,"lo1":-89.0895,"lo2":-89.0444,"dy":0.0017,"dx":0.0017,"nx":28,"ny":28,"refTime":"2026-02-14T09:00:00:Z","depth":0,"parameterNumber":2,"parameterNumberName":"U-component_of_WINDS"},"data":[0,0,0,0,0,0,0,0,0,0,0,0,0,0,0,0,0,0,0,0,0,0,0,0,0,0,0,0,0,0,0,0,0,0,0,0,0,0,0,0,0,0,0,0,0,0,0,0,0,0,0,0,0,0,0,0,0,0,-5.0012,-5.0014,0,-5.0192,-5.0194,-5.0196,-5.0233,-5.0231,-5.023,-5.0229,-5.041,-5.0416,-5.0422,0,0,0,0,0,0,0,0,0,0,0,0,0,-4.97,-4.9706,-5.0012,-5.0014,-5.0017,-5.0192,-5.0194,-5.0197,-5.0233,-5.0231,-5.023,-5.0228,-5.0408,-5.0415,-5.0422,0,0,0,0,0,0,0,0,0,0,0,0,0,-4.9853,-4.9707,-5.0012,-5.0056,-5.0062,-5.0191,-5.0194,-5.0197,-5.0233,-5.0231,-5.0229,-5.0227,-5.0406,-5.0414,-5.0423,-5.0521,0,0,-5.0451,-5.0455,0,0,0,0,0,0,0,0,-4.9844,-4.9864,-5.0047,-5.0053,-5.006,-5.0188,-5.0151,-5.0305,-5.0234,-5.0168,-5.0229,-5.0226,-5.0338,-5.0352,-5.039,-5.0529,-5.0537,-5.0452,-5.0458,-5.0462,-5.0464,0,0,0,0,0,0,0,-4.9834,-4.9857,-5.0083,-5.005,-5.0058,-5.0067,-5.0086,-5.018,-5.0262,-5.0174,-5.0177,-5.0198,-5.0341,-5.0381,-5.0395,-5.0539,-5.0452,-5.046,-5.0466,-5.0469,-5.077,-5.0773,0,0,0,0,0,0,-4.9816,-4.9848,-5.0077,-5.0089,-4.9945,-5.0074,-5.0096,-5.0149,-5.0261,-5.0276,-5.0199,-5.0199,-5.0367,-5.0384,-5.0401,-5.0524,-5.0462,-5.047,-5.0475,-5.0768,-5.0771,-5.0773,0,0,0,0,0,0,-4.9809,-4.9836,-5.007,-4.9969,-5.0,-5.0082,-5.0141,-5.0153,-5.0194,-5.028,-5.0295,-5.0226,-5.0366,-5.0388,-5.0492,-5.0531,-5.0474,-5.0483,-5.0765,-5.0769,-5.0772,-5.0769,0,0,0,0,0,0,-4.98,-4.9833,-4.987,-4.997,-5.0005,-5.0157,-5.0143,-5.0158,-5.021,-5.0211,-5.0309,-5.0323,-5.0366,-5.0478,-5.0501,-5.0542,-5.049,-5.0761,-5.0766,-5.0771,-5.0766,-5.0772,-5.0777,0,0,0,0,0,-4.9788,-4.9861,-4.9872,-4.99,-5.0054,-5.0159,-5.018,-5.0228,-5.0213,-5.0252,-5.0308,-5.032,-5.0523,-5.0488,-5.0514,-5.0559,-5.0759,-5.0765,-5.077,-5.0763,-5.0771,-5.0777,0,0,0,0,0,0,-4.9762,-4.9875,-4.9888,-4.9995,-5.0068,-5.0165,-5.0215,-5.0234,-5.0311,-5.0308,-5.0364,-5.0386,-5.0486,-5.0533,-5.0492,-5.066,-5.064,-5.0651,-5.0626,-5.0634,-5.064,-5.0626,-5.0497,0,0,0,0,0,-4.9769,-4.9846,-4.994,-5.0026,-5.0062,-5.0132,-5.018,-5.0212,-5.0288,-5.0319,-5.0382,-5.0455,-5.0536,-5.0588,-5.0666,-5.0773,-5.0796,-5.0818,-5.0823,-5.0828,-5.0836,-5.0898,-5.091,-5.0792,-5.0792,-5.0792,0,0,-4.9784,-4.9855,-4.99,-5.0023,-5.0082,-5.0161,-5.0158,-5.024,-5.0299,-5.0331,-5.0433,-5.0482,-5.0568,-5.0674,-5.0724,-5.0716,-5.0874,-5.0835,-5.0838,-5.0844,-5.0905,-5.0916,-5.0926,-5.0796,-5.0795,-5.0795,0,0,-4.9851,-4.9912,-4.9991,-5.0052,-5.0143,-5.0191,-5.021,-5.0306,-5.034,-5.0444,-5.047,-5.0541,-5.0678,-5.0739,-5.0788,-5.0882,-5.0897,-5.0906,-5.0936,-5.0996,-5.1005,-5.1014,-5.1048,-5.106,-5.0915,-5.0915,-5.0915,0,-4.9857,-4.9977,-5.0029,-5.0112,-5.0166,-5.02,-5.0281,-5.0338,-5.0449,-5.0486,-5.0476,-5.0651,-5.0711,-5.0833,-5.0856,-5.0895,-5.0919,-5.0894,-5.1,-5.1009,-5.1018,-5.1051,-5.1064,-5.0915,-5.0915,-5.0915,-5.0915,0,-4.9981,-5.0064,-5.0117,-5.0226,-5.0286,-5.0367,-5.0432,-5.0487,-5.0514,-5.0562,-5.0668,-5.0742,-5.0838,-5.0869,-5.0895,-5.0996,-5.0989,-5.0989,-5.0969,-5.1029,-5.1061,-5.1074,-5.0916,-5.0916,-5.0916,-5.0916,0,0,-5.0033,-5.0173,-5.0192,-5.0243,-5.0348,-5.0413,-5.0497,-5.0592,-5.0638,-5.0715,-5.0787,-5.0905,-5.0907,-5.0962,-5.0996,-5.1049,-5.112,-5.1043,-5.1046,-5.1055,-5.1237,-5.1236,-5.125,-5.1132,-5.1134,-5.1137,-5.123,0,-5.0113,-5.0264,-5.0315,-5.0441,-5.0519,-5.0555,-5.0628,-5.0701,-5.0749,-5.0823,-5.0876,-5.0959,-5.0954,-5.0988,-5.1042,-5.11,-5.1158,-5.1094,-5.1199,-5.1202,-5.1176,-5.1267,-5.1266,-5.135,-5.1243,-5.1245,-5.1247,0,-5.0226,-5.0307,-5.044,-5.0539,-5.0573,-5.0638,-5.0731,-5.0801,-5.0884,-5.0916,-5.098,-5.1011,-5.1101,-5.1078,-5.1202,-5.1158,-5.1205,-5.124,-5.1245,-5.1256,-5.1228,-5.1281,-5.1379,-5.1391,-5.1267,-5.1266,-5.1264,0,-5.0252,-5.0394,-5.0493,-5.0536,-5.0652,-5.0698,-5.0748,-5.083,-5.0885,-5.0966,-5.1003,-5.1092,-5.1142,-5.1211,-5.1266,-5.1243,-5.1386,-5.1367,-5.1415,-5.1414,-5.1443,-5.144,-5.1549,-5.1473,-5.1473,-5.1472,-5.1472,0,-5.0335,-5.0416,-5.0507,-5.0567,-5.0659,-5.0718,-5.0807,-5.086,-5.0934,-5.1006,-5.1042,-5.1109,-5.1177,-5.1253,-5.1297,-5.1395,-5.1416,-5.1445,-5.1455,-5.1441,-5.1438,-5.1472,-5.1467,-5.1476,-5.1475,-5.1474,-5.1474,0,-5.0379,-5.0443,-5.0554,-5.0657,-5.0684,-5.0748,-5.0836,-5.0896,-5.0948,-5.1038,-5.1063,-5.1143,-5.1235,-5.1297,-5.1414,-5.1443,-5.155,-5.1559,-5.1521,-5.1527,-5.1572,-5.1567,-5.1706,-5.1728,-5.1637,-5.1637,-5.1638,0,-5.0428,-5.0491,-5.0602,-5.0653,-5.0705,-5.0787,-5.0844,-5.0905,-5.0963,-5.1065,-5.1114,-5.1209,-5.1288,-5.1433,-5.1501,-5.1591,-5.1603,-5.1646,-5.1617,-5.1602,-5.1605,-5.16,-5.1608,-5.165,-5.1651,-5.1652,-5.1652,0,-5.0509,-5.0538,-5.0619,-5.0713,-5.078,-5.0856,-5.0932,-5.0972,-5.1047,-5.111,-5.1205,-5.1267,-5.1388,-5.1482,-5.1579,-5.1632,-5.1655,-5.1661,-5.1677,-5.1663,-5.164,-5.1654,-5.1534,-5.1657,-5.1657,-5.1656,-5.1656,-5.1656,-5.0557,-5.0616,-5.0704,-5.0794,-5.0858,-5.0929,-5.0992,-5.1053,-5.1133,-5.1237,-5.1269,-5.1368,-5.1453,-5.1587,-5.1641,-5.172,-5.1716,-5.1739,-5.1745,-5.1749,-5.175,-5.1628,-5.1738,-5.1738,-5.1738,-5.1738,-5.1737,0,-5.064,-5.0699,-5.0782,-5.0888,-5.096,-5.0977,-5.1063,-5.1121,-5.1209,-5.1287,-5.1365,-5.1475,-5.1567,-5.1644,-5.174,-5.1788,-5.1801,-5.1811,-5.1808,-5.182,-5.1747,-5.1724,-5.1799,-5.1799,-5.1799,-5.1799,-5.1799,-5.1799,-5.0692,-5.0793,-5.0833,-5.0967,-5.1026,-5.1125,-5.1172,-5.1239,-5.1302,-5.1424,-5.1501,-5.1551,-5.163,-5.1731,-5.1817,-5.1838,-5.1871,-5.1879,-5.1901,-5.1832,-5.1825,-5.1818,-5.1797,-5.1885,-5.1885,-5.1968,-5.1968,-5.1969]},{"header":{"parameterUnit":"m.s-1","parameterCategory":1,"la1":30.2991,"la2":30.254,"lo1":-89.0895,"lo2":-89.0444,"dy":0.0017,"dx":0.0017,"nx":28,"ny":28,"refTime":"2026-02-14T09:00:00:Z","depth":0,"parameterNumber":3,"parameterNumberName":"V-component_of_WINDS"},"data":[0,0,0,0,0,0,0,0,0,0,0,0,0,0,0,0,0,0,0,0,0,0,0,0,0,0,0,0,0,0,0,0,0,0,0,0,0,0,0,0,0,0,0,0,0,0,0,0,0,0,0,0,0,0,0,0,0,0,2.4148,2.4149,0,2.4259,2.426,2.4261,2.4346,2.4347,2.4347,2.4348,2.446,2.4462,2.4465,0,0,0,0,0,0,0,0,0,0,0,0,0,2.4011,2.4013,2.4148,2.4149,2.415,2.4258,2.426,2.4261,2.4346,2.4347,2.4347,2.4348,2.446,2.4462,2.4465,0,0,0,0,0,0,0,0,0,0,0,0,0,2.4091,2.4013,2.4147,2.4205,2.4212,2.4258,2.426,2.4262,2.4345,2.4347,2.4348,2.4349,2.4459,2.4462,2.4465,2.4462,0,0,2.4476,2.4477,0,0,0,0,0,0,0,0,2.4086,2.4095,2.4195,2.4201,2.4209,2.429,2.4253,2.4329,2.4345,2.4295,2.4348,2.4349,2.4402,2.441,2.4429,2.4468,2.4473,2.4476,2.4478,2.4479,2.448,0,0,0,0,0,0,0,2.408,2.4091,2.4192,2.4197,2.4205,2.4227,2.4239,2.4268,2.434,2.4299,2.4305,2.4318,2.4406,2.4425,2.4432,2.4474,2.4476,2.4479,2.4481,2.4482,2.4522,2.4521,0,0,0,0,0,0,2.4066,2.4086,2.4188,2.4195,2.4149,2.4228,2.4242,2.4262,2.434,2.4353,2.4316,2.4321,2.4419,2.4428,2.4436,2.4442,2.4479,2.4483,2.4484,2.4523,2.4522,2.4521,0,0,0,0,0,0,2.4062,2.4074,2.4184,2.4142,2.4158,2.4229,2.4251,2.4264,2.4283,2.4354,2.4367,2.4322,2.442,2.4431,2.4457,2.4447,2.4484,2.4487,2.4524,2.4523,2.4522,2.4451,0,0,0,0,0,0,2.4058,2.4072,2.4071,2.4142,2.416,2.4201,2.425,2.4265,2.4289,2.4296,2.4363,2.4375,2.4422,2.4451,2.446,2.4452,2.449,2.4526,2.4524,2.4522,2.4454,2.4447,2.4441,0,0,0,0,0,2.4053,2.4045,2.407,2.4082,2.416,2.42,2.4211,2.4266,2.4287,2.4288,2.4334,2.4373,2.4446,2.4453,2.4464,2.4457,2.4527,2.4524,2.4522,2.4457,2.4449,2.4441,0,0,0,0,0,0,2.397,2.4055,2.4084,2.4099,2.4142,2.4215,2.4216,2.4254,2.4291,2.4296,2.4362,2.4376,2.4395,2.4428,2.4434,2.4461,2.4492,2.4492,2.4439,2.4431,2.4424,2.4417,2.4493,0,0,0,0,0,2.3954,2.3979,2.4052,2.4059,2.4079,2.4144,2.4163,2.4202,2.4249,2.4268,2.4315,2.4359,2.4393,2.4414,2.4448,2.446,2.4477,2.446,2.4454,2.4448,2.4447,2.446,2.4455,2.4514,2.4514,2.4514,0,0,2.392,2.397,2.3981,2.4043,2.4081,2.4108,2.4158,2.4183,2.4204,2.4271,2.4299,2.4336,2.439,2.4409,2.442,2.4437,2.4435,2.4445,2.444,2.4443,2.4458,2.4452,2.4447,2.4513,2.4513,2.4513,0,0,2.3872,2.3911,2.3923,2.3961,2.4018,2.4062,2.4065,2.4133,2.416,2.419,2.4242,2.4268,2.4323,2.4361,2.4387,2.4359,2.4397,2.4368,2.4333,2.4345,2.4341,2.4337,2.433,2.4327,2.4367,2.4367,2.4367,0,2.3823,2.3864,2.3924,2.3947,2.3974,2.4038,2.4052,2.4086,2.4151,2.4169,2.4187,2.4262,2.4302,2.4333,2.4327,2.4345,2.4352,2.4361,2.4337,2.4334,2.4331,2.4325,2.4322,2.4363,2.4364,2.4364,2.4364,0,2.3803,2.3831,2.3834,2.3898,2.3925,2.3943,2.4007,2.4027,2.4065,2.4107,2.4138,2.419,2.4238,2.4248,2.4283,2.4286,2.4296,2.4324,2.4357,2.4321,2.4317,2.4315,2.4358,2.4359,2.436,2.4361,0,0,2.3705,2.3804,2.3804,2.3836,2.3906,2.3929,2.3952,2.4,2.4018,2.4062,2.4084,2.4132,2.416,2.419,2.4231,2.4241,2.422,2.427,2.4272,2.4261,2.4231,2.421,2.4206,2.4246,2.4246,2.4246,2.4227,0,2.367,2.3714,2.377,2.3796,2.3825,2.3888,2.3908,2.3954,2.3995,2.4026,2.4072,2.4106,2.4139,2.4159,2.4171,2.422,2.4215,2.4222,2.4269,2.427,2.4256,2.4204,2.4181,2.4161,2.4226,2.4225,2.4225,0,2.3635,2.3679,2.3707,2.3779,2.3793,2.381,2.3861,2.389,2.3944,2.3974,2.4009,2.4054,2.4084,2.4112,2.4154,2.4158,2.4181,2.4208,2.4209,2.4216,2.4246,2.4212,2.4155,2.4153,2.4223,2.4223,2.4223,0,2.3565,2.363,2.3657,2.3681,2.3764,2.3776,2.3811,2.3867,2.3894,2.3939,2.3958,2.4004,2.4031,2.4067,2.4124,2.4139,2.4162,2.4194,2.4189,2.4188,2.4192,2.4191,2.414,2.4203,2.4203,2.4203,2.4203,0,2.3522,2.3538,2.3627,2.3643,2.3664,2.373,2.3749,2.379,2.384,2.3867,2.3923,2.3947,2.4021,2.4055,2.41,2.4131,2.4141,2.4167,2.4179,2.4163,2.416,2.418,2.4184,2.4202,2.4202,2.4203,2.4203,0,2.3447,2.3507,2.3541,2.3618,2.3638,2.3651,2.3717,2.3737,2.3783,2.3816,2.3828,2.39,2.3943,2.4004,2.4064,2.4095,2.412,2.4138,2.4102,2.411,2.4103,2.4104,2.4064,2.4064,2.4124,2.4123,2.4123,0,2.3417,2.3431,2.3511,2.3534,2.3568,2.3603,2.3632,2.3697,2.3725,2.3791,2.3803,2.3851,2.3892,2.3959,2.4017,2.4065,2.4086,2.4069,2.4093,2.4078,2.4089,2.4089,2.4092,2.4063,2.4062,2.4061,2.4061,0,2.3358,2.3388,2.3427,2.3478,2.3511,2.3554,2.3599,2.3615,2.369,2.3719,2.3765,2.3797,2.3862,2.3909,2.3966,2.4004,2.4046,2.4053,2.4055,2.4039,2.4019,2.4033,2.4089,2.4053,2.4054,2.4055,2.4055,2.4055,2.3307,2.3324,2.3384,2.3427,2.3469,2.3511,2.3534,2.3584,2.3623,2.3681,2.3718,2.3762,2.3821,2.3901,2.3937,2.3974,2.3991,2.3993,2.3994,2.3994,2.399,2.4012,2.3984,2.3985,2.3985,2.3985,2.3985,0,2.3253,2.3296,2.3334,2.3398,2.3433,2.347,2.3523,2.355,2.3589,2.364,2.3681,2.3735,2.3783,2.3845,2.3898,2.3916,2.3937,2.3928,2.3928,2.3937,2.397,2.3965,2.391,2.391,2.391,2.391,2.391,2.391,2.3229,2.3262,2.3299,2.3354,2.3397,2.3442,2.347,2.351,2.3552,2.361,2.365,2.3691,2.3748,2.3806,2.3852,2.387,2.3888,2.3873,2.3897,2.3927,2.3934,2.394,2.3936,2.3876,2.3876,2.3861,2.3861,2.3861]}]]